Location: Byszew
(52.1813°N, 19.2693°E)
Time: 02:55:52
(UTC+00:00)

Envisat - Pass Details

Date: 28 January 2022
Orbit: 764 x 765 km, 98.2° (Epoch: 28 May)

Event Time Altitude Azimuth Distance (km) Brightness Sun altitude
Rises 04:42:16 0° 9° (N) 3,244 6.3 -16.3°
Reaches altitude 10° 04:44:42 10° 2° (N) 2,314 5.4 -16.0°
Maximum altitude 04:49:22 38° 296° (WNW) 1,154 3.4 -15.3°
Drops below altitude 10° 04:54:02 10° 229° (SW) 2,300 5.1 -14.6°
Sets 04:56:27 0° 222° (SW) 3,222 5.9 -14.2°
